[[{"header":{"parameterUnit":"m.s-1","parameterCategory":1,"la1":30.2991,"la2":30.254,"lo1":-89.0895,"lo2":-89.0444,"dy":0.0017,"dx":0.0017,"nx":28,"ny":28,"refTime":"2025-03-12T03:00:00:Z","depth":0,"parameterNumber":2,"parameterNumberName":"U-component_of_WINDS"},"data":[0,0,0,0,0,0,0,0,0,0,0,0,0,0,0,0,0,0,0,0,0,0,0,0,0,0,0,0,0,0,0,0,0,0,0,0,0,0,0,0,0,0,0,0,0,0,0,0,0,0,0,0,0,0,0,0,0,0,3.9126,3.9128,0,3.9383,3.9386,3.9389,3.9413,3.941,3.9407,3.9405,3.9673,3.9682,3.9692,0,0,0,0,0,0,0,0,0,0,0,0,0,3.8658,3.8667,3.9125,3.9129,3.9132,3.9383,3.9386,3.939,3.9413,3.941,3.9406,3.9403,3.9669,3.9681,3.9693,0,0,0,0,0,0,0,0,0,0,0,0,0,3.8883,3.867,3.9125,3.9174,3.9181,3.9382,3.9386,3.9391,3.9414,3.941,3.9406,3.9402,3.9666,3.968,3.9694,3.9866,0,0,3.9739,3.9745,0,0,0,0,0,0,0,0,3.887,3.89,3.9163,3.9171,3.9179,3.9361,3.932,3.955,3.9415,3.9325,3.9405,3.94,3.9573,3.9595,3.9652,3.9878,3.989,3.974,3.9749,3.9755,3.9759,0,0,0,0,0,0,0,3.8855,3.8889,3.9227,3.9167,3.9177,3.9184,3.9212,3.9363,3.9469,3.9333,3.9335,3.9365,3.9576,3.9638,3.9659,3.9894,3.9739,3.9752,3.9761,3.9767,4.0273,4.0278,0,0,0,0,0,0,3.8829,3.8876,3.9219,3.9235,3.9011,3.9196,3.9226,3.9307,3.9467,3.9488,3.9368,3.9365,3.9615,3.9642,3.9668,3.9878,3.9755,3.9768,3.9777,4.0269,4.0274,4.028,0,0,0,0,0,0,3.8819,3.886,3.9209,3.9057,3.9101,3.9208,3.9299,3.9314,3.9376,3.9494,3.9513,3.9412,3.9613,3.9648,3.9816,3.9888,3.9775,3.9788,4.0263,4.027,4.0277,4.0301,0,0,0,0,0,0,3.8806,3.8856,3.8921,3.9058,3.9109,3.9351,3.9303,3.9322,3.94,3.9399,3.954,3.956,3.9612,3.9794,3.983,3.9906,3.9799,4.0257,4.0266,4.0275,4.0294,4.0308,4.032,0,0,0,0,0,3.8789,3.8919,3.8924,3.8966,3.9193,3.9355,3.9385,3.9442,3.9406,3.9473,3.9549,3.9555,3.9875,3.9811,3.9852,3.9933,4.0253,4.0264,4.0274,4.0288,4.0305,4.032,0,0,0,0,0,0,3.8789,3.8937,3.8945,3.9123,3.9226,3.9359,3.9445,3.9458,3.9575,3.9569,3.9636,3.9668,3.9833,3.9901,3.9827,4.0108,4.006,4.008,4.0057,4.0074,4.0087,4.0066,3.9811,0,0,0,0,0,3.881,3.8928,3.9052,3.9196,3.9248,3.9337,3.941,3.9445,3.9555,3.96,3.9688,3.9796,3.9921,4.0002,4.0123,4.0305,4.0336,4.0381,4.0394,4.0404,4.0419,4.052,4.0541,4.0315,4.0315,4.0314,0,0,3.8854,3.8949,3.902,3.9199,3.9283,3.9404,3.9374,3.9504,3.9595,3.962,3.9783,3.9852,3.9978,4.0153,4.0235,4.0214,4.0489,4.0417,4.0424,4.0435,4.0533,4.0554,4.0573,4.0322,4.0321,4.0319,0,0,3.8995,3.908,3.9209,3.9294,3.9421,3.948,3.9511,3.9642,3.9688,3.9853,3.9874,3.9985,4.0198,4.0286,4.0359,4.0534,4.0544,4.0573,4.0639,4.0736,4.0754,4.077,4.0831,4.0853,4.0588,4.0588,4.0588,0,3.9034,3.9216,3.9274,3.9403,3.9481,3.9508,3.964,3.972,3.9881,3.9935,3.991,4.0178,4.0265,4.046,4.0503,4.0562,4.0599,4.0556,4.0746,4.0763,4.0779,4.0838,4.0861,4.0591,4.059,4.059,4.059,0,3.9257,3.9384,3.9473,3.9626,3.9715,3.9845,3.9923,4.0006,4.0034,4.0096,4.0264,4.0369,4.0511,4.0561,4.059,4.0761,4.0744,4.0732,4.0685,4.0802,4.0859,4.0882,4.0594,4.0593,4.0593,4.0592,0,0,3.9404,3.9587,3.9619,3.9688,3.9831,3.9931,4.0063,4.0201,4.027,4.0382,4.0493,4.0674,4.0663,4.0746,4.0786,4.0871,4.1002,4.0849,4.0853,4.0872,4.1196,4.1202,4.1228,4.101,4.1015,4.1018,4.1185,0,3.956,3.9793,3.985,4.005,4.0167,4.0195,4.031,4.0411,4.0473,4.0583,4.0652,4.0778,4.0755,4.0805,4.0891,4.0967,4.1068,4.0957,4.1115,4.112,4.108,4.1258,4.1265,4.1417,4.1208,4.1212,4.1214,0,3.9773,3.9887,4.0098,4.0225,4.0276,4.0378,4.0509,4.0614,4.0729,4.0768,4.086,4.0891,4.1031,4.0979,4.1172,4.1095,4.1164,4.1211,4.1219,4.1234,4.1172,4.1276,4.1467,4.1489,4.125,4.1247,4.1245,0,3.9857,4.0063,4.0216,4.0275,4.0427,4.0498,4.0565,4.0676,4.0756,4.0871,4.0923,4.1054,4.1125,4.1227,4.1293,4.1249,4.148,4.1434,4.1516,4.1515,4.1562,4.1558,4.1765,4.161,4.161,4.1609,4.1609,0,4.0024,4.0152,4.0255,4.0349,4.0493,4.0558,4.0699,4.0767,4.0866,4.0974,4.1008,4.1109,4.1191,4.1304,4.1357,4.1508,4.1541,4.1577,4.1589,4.1572,4.1567,4.1616,4.1607,4.1615,4.1614,4.1613,4.1612,0,4.0141,4.0216,4.0383,4.0514,4.055,4.065,4.0762,4.0855,4.0918,4.1055,4.1091,4.119,4.1325,4.1401,4.1571,4.1607,4.1774,4.1783,4.1734,4.1739,4.1817,4.1808,4.2061,4.2097,4.192,4.1922,4.1923,0,4.0242,4.034,4.0481,4.0555,4.0622,4.0742,4.0822,4.0891,4.0974,4.1113,4.1189,4.1325,4.1437,4.1651,4.1739,4.1869,4.188,4.196,4.19,4.188,4.1879,4.1871,4.1881,4.1969,4.1971,4.1972,4.1973,0,4.0412,4.0443,4.0557,4.0685,4.078,4.0884,4.0988,4.1047,4.1132,4.1224,4.1361,4.1448,4.1621,4.1756,4.1893,4.1964,4.1983,4.1992,4.2017,4.2,4.1967,4.1984,4.176,4.1985,4.1984,4.1983,4.1982,4.1982,4.0522,4.0611,4.0723,4.0849,4.0934,4.103,4.1123,4.1197,4.1312,4.1456,4.1491,4.1635,4.1749,4.1935,4.2009,4.2124,4.2109,4.2147,4.2156,4.2164,4.2165,4.1951,4.2149,4.2149,4.2149,4.2149,4.2149,0,4.0692,4.0766,4.0881,4.1024,4.1123,4.1132,4.1247,4.133,4.1455,4.1559,4.1669,4.1826,4.1957,4.2056,4.219,4.2263,4.2275,4.2296,4.229,4.2306,4.2171,4.2134,4.2283,4.2283,4.2283,4.2283,4.2283,4.2283,4.0792,4.0941,4.0987,4.1179,4.1253,4.1392,4.1457,4.1546,4.1629,4.1803,4.1911,4.1974,4.2076,4.2218,4.2339,4.2365,4.2412,4.2431,4.2458,4.233,4.2315,4.2301,4.2267,4.2441,4.2442,4.2583,4.2584,4.2585]},{"header":{"parameterUnit":"m.s-1","parameterCategory":1,"la1":30.2991,"la2":30.254,"lo1":-89.0895,"lo2":-89.0444,"dy":0.0017,"dx":0.0017,"nx":28,"ny":28,"refTime":"2025-03-12T03:00:00:Z","depth":0,"parameterNumber":3,"parameterNumberName":"V-component_of_WINDS"},"data":[0,0,0,0,0,0,0,0,0,0,0,0,0,0,0,0,0,0,0,0,0,0,0,0,0,0,0,0,0,0,0,0,0,0,0,0,0,0,0,0,0,0,0,0,0,0,0,0,0,0,0,0,0,0,0,0,0,0,0.6119,0.612,0,0.6162,0.6162,0.6163,0.6158,0.6157,0.6157,0.6156,0.6202,0.6203,0.6205,0,0,0,0,0,0,0,0,0,0,0,0,0,0.6036,0.6037,0.6119,0.612,0.612,0.6162,0.6162,0.6163,0.6158,0.6157,0.6156,0.6156,0.6201,0.6203,0.6205,0,0,0,0,0,0,0,0,0,0,0,0,0,0.6075,0.6038,0.6119,0.6123,0.6124,0.6162,0.6162,0.6163,0.6158,0.6157,0.6156,0.6155,0.62,0.6203,0.6206,0.6244,0,0,0.6214,0.6216,0,0,0,0,0,0,0,0,0.6072,0.6078,0.6122,0.6123,0.6124,0.6153,0.615,0.619,0.6158,0.6145,0.6156,0.6155,0.6187,0.619,0.6201,0.6246,0.6248,0.6215,0.6216,0.6217,0.6218,0,0,0,0,0,0,0,0.607,0.6076,0.6136,0.6122,0.6124,0.6123,0.6127,0.6157,0.6171,0.6146,0.6146,0.6151,0.6187,0.6198,0.6202,0.6248,0.6214,0.6217,0.6219,0.622,0.6326,0.6327,0,0,0,0,0,0,0.6066,0.6074,0.6135,0.6137,0.6095,0.6125,0.613,0.6145,0.6171,0.6174,0.6152,0.6151,0.6194,0.6199,0.6203,0.6249,0.6217,0.622,0.6222,0.6325,0.6327,0.6328,0,0,0,0,0,0,0.6064,0.6071,0.6133,0.6105,0.6113,0.6128,0.6144,0.6146,0.6157,0.6175,0.6178,0.616,0.6193,0.6199,0.6233,0.6251,0.6221,0.6224,0.6324,0.6326,0.6327,0.6342,0,0,0,0,0,0,0.6062,0.6071,0.6085,0.6106,0.6115,0.6162,0.6145,0.6148,0.6162,0.6161,0.6184,0.6187,0.6193,0.6229,0.6236,0.6254,0.6226,0.6322,0.6325,0.6327,0.634,0.6344,0.6347,0,0,0,0,0,0.6059,0.6088,0.6086,0.6093,0.6133,0.6163,0.6168,0.6174,0.6163,0.6178,0.6189,0.6186,0.6248,0.6233,0.6241,0.626,0.6321,0.6324,0.6327,0.6338,0.6343,0.6347,0,0,0,0,0,0,0.607,0.6091,0.6088,0.6125,0.6142,0.6162,0.6181,0.6179,0.62,0.6198,0.6205,0.621,0.6245,0.6255,0.6239,0.6298,0.6283,0.6287,0.6289,0.6294,0.6298,0.6295,0.6228,0,0,0,0,0,0.6076,0.6098,0.6116,0.6146,0.6155,0.6166,0.618,0.6182,0.6201,0.6208,0.6222,0.6241,0.6264,0.628,0.6302,0.6341,0.6346,0.6358,0.6362,0.6365,0.6369,0.639,0.6396,0.6336,0.6336,0.6336,0,0,0.609,0.6104,0.6118,0.6149,0.6162,0.6186,0.6172,0.6198,0.6216,0.6213,0.6245,0.6256,0.6277,0.6314,0.633,0.6324,0.6386,0.6368,0.637,0.6373,0.6393,0.6399,0.6404,0.6338,0.6338,0.6338,0,0,0.6127,0.614,0.6167,0.6181,0.6201,0.6208,0.6215,0.6235,0.6242,0.6274,0.6272,0.6294,0.6334,0.6349,0.6362,0.6404,0.6403,0.6412,0.6431,0.6452,0.6457,0.6461,0.6477,0.6482,0.6415,0.6415,0.6415,0,0.6143,0.6177,0.6181,0.6207,0.6221,0.6218,0.6245,0.6259,0.6286,0.6296,0.6287,0.6338,0.6352,0.6392,0.6402,0.6412,0.642,0.641,0.6456,0.646,0.6464,0.6479,0.6485,0.6416,0.6416,0.6416,0.6416,0,0.6195,0.6219,0.6238,0.6264,0.6279,0.6306,0.6315,0.633,0.6331,0.634,0.6373,0.639,0.6415,0.6425,0.6427,0.6465,0.6461,0.6454,0.644,0.647,0.6485,0.649,0.6418,0.6417,0.6417,0.6417,0,0,0.6241,0.6268,0.6275,0.6286,0.6308,0.6327,0.6354,0.6378,0.6392,0.641,0.6433,0.6467,0.646,0.6475,0.6478,0.6497,0.6529,0.6488,0.6488,0.6495,0.6573,0.6579,0.6585,0.6528,0.6529,0.653,0.6572,0,0.6282,0.6327,0.6332,0.6373,0.6396,0.6393,0.6416,0.6432,0.644,0.6461,0.647,0.6494,0.6484,0.6493,0.6511,0.6522,0.6545,0.6519,0.655,0.6551,0.6545,0.6593,0.6598,0.6637,0.6577,0.6578,0.6579,0,0.6335,0.6354,0.6397,0.6416,0.6425,0.6446,0.6469,0.6488,0.6507,0.6511,0.6527,0.6528,0.6556,0.6539,0.6578,0.656,0.6573,0.658,0.6581,0.6585,0.6567,0.6598,0.665,0.6656,0.6588,0.6587,0.6586,0,0.6365,0.6402,0.6432,0.6442,0.6464,0.6479,0.6489,0.6506,0.652,0.654,0.655,0.6573,0.6586,0.6604,0.6611,0.6598,0.6649,0.6634,0.6654,0.6654,0.6666,0.6665,0.6721,0.6673,0.6673,0.6673,0.6673,0,0.641,0.6437,0.6446,0.6465,0.6495,0.65,0.653,0.6539,0.6554,0.6576,0.6574,0.6595,0.6602,0.6624,0.663,0.6661,0.6666,0.6672,0.6673,0.6672,0.6671,0.6681,0.6679,0.6675,0.6674,0.6674,0.6674,0,0.6449,0.6456,0.649,0.6507,0.6513,0.6534,0.655,0.6568,0.6576,0.6603,0.6609,0.6621,0.6646,0.6655,0.6686,0.6689,0.6726,0.6725,0.6719,0.672,0.674,0.6739,0.6805,0.6814,0.676,0.676,0.676,0,0.6477,0.6498,0.6517,0.6531,0.6542,0.6564,0.6578,0.6583,0.6598,0.662,0.6637,0.6661,0.6681,0.6722,0.6734,0.6757,0.6757,0.6778,0.676,0.6759,0.6758,0.6757,0.6759,0.6782,0.6782,0.6783,0.6783,0,0.6527,0.653,0.655,0.6571,0.6588,0.6606,0.6623,0.6634,0.6642,0.6659,0.6684,0.67,0.673,0.6755,0.6779,0.679,0.6788,0.6789,0.6795,0.6795,0.6791,0.6794,0.6729,0.6787,0.6787,0.6787,0.6786,0.6786,0.6562,0.658,0.6597,0.6619,0.6632,0.6648,0.6666,0.6676,0.6697,0.6722,0.6723,0.6751,0.6768,0.68,0.6812,0.6834,0.6828,0.6837,0.6839,0.6841,0.6843,0.6787,0.6838,0.6838,0.6838,0.6838,0.6838,0,0.6612,0.6623,0.6643,0.6667,0.6684,0.668,0.6698,0.6714,0.6738,0.6754,0.6773,0.6802,0.6826,0.6839,0.6863,0.6878,0.6878,0.6884,0.6884,0.6886,0.6847,0.6839,0.6884,0.6884,0.6884,0.6884,0.6884,0.6884,0.6641,0.6671,0.6675,0.6712,0.6722,0.6748,0.6759,0.6774,0.6787,0.6819,0.6838,0.6846,0.6862,0.6887,0.6908,0.6912,0.6921,0.6928,0.6931,0.6894,0.6889,0.6885,0.6878,0.693,0.693,0.6968,0.6969,0.6969]}]]